Stations météo

réclame
Mon MeteoGroup
London/Heathrow Intl, Grande-Bretagne (3772): Température de l'air & dewpoint: 11.10.2018 06:00:00 - 17.10.2018 06:00:00 (BST)London/Heathrow Intl, Grande-Bretagne (3772): Vitesse du vent & gusts: 11.10.2018 06:00:00 - 17.10.2018 06:00:00 (BST)London/Heathrow Intl, Grande-Bretagne (3772): Direction du vent: 11.10.2018 06:00:00 - 17.10.2018 06:00:00 (BST)London/Heathrow Intl, Grande-Bretagne (3772): reduced air pressure: 11.10.2018 06:00:00 - 17.10.2018 06:00:00 (BST)London/Heathrow Intl, Grande-Bretagne (3772): visibility: 11.10.2018 06:00:00 - 17.10.2018 06:00:00 (BST)London/Heathrow Intl, Grande-Bretagne (3772): Ensoleillement: 11.10.2018 06:00:00 - 17.10.2018 06:00:00 (BST)London/Heathrow Intl, Grande-Bretagne (3772): Quantités de précipitations: 11.10.2018 06:00:00 - 17.10.2018 06:00:00 (BST)
Date & Time tt [°C] td [°C] ff [km/h] ff [knt] fx [km/h] fx [knt] dd ppp [hPa] vv [km] sd [min] rr [mm]
17.10.2018 06:00:00 11,9 10,6 5 3 - - - 1017,5 10 0 0,0
17.10.2018 05:00:00 11,6 10,4 9 5 - - SSW 1017,1 10 0 0,0
17.10.2018 04:00:00 11,9 10,7 9 5 - - SSW 1017,1 10 0 0,0
17.10.2018 03:00:00 12,2 10,7 9 5 - - SSW 1017,2 10 0 0,0
17.10.2018 02:00:00 12,9 10,9 11 6 - - SW 1017,4 10 0 0,0
17.10.2018 01:00:00 13,1 10,9 11 6 - - SW 1017,3 10 - 0,0
17.10.2018 00:00:00 13,1 10,8 15 8 - - SW 1017,4 10 0 0,0
16.10.2018 23:00:00 14,3 10,7 15 8 - - SW 1017,3 10 0 0,0
16.10.2018 22:00:00 14,6 10,3 15 8 - - SW 1017,3 10 0 0,0
16.10.2018 21:00:00 15,6 11,2 24 13 - - SW 1017,3 50 0 0,0
16.10.2018 20:00:00 16,3 12,7 18 10 - - WSW 1016,8 10 0 0,0
16.10.2018 19:00:00 16,7 14,1 15 8 - - SSW 1016,4 10 0 0,0
16.10.2018 18:00:00 17,0 14,0 15 8 - - S 1016,0 15 0 0,0
16.10.2018 17:00:00 17,2 13,7 15 8 - - S 1015,6 10 0 0,0
16.10.2018 16:00:00 17,7 13,7 21 11 - - SSW 1015,8 10 18 0,0
16.10.2018 15:00:00 18,6 13,4 24 13 - - S 1015,6 10 18 0,0
16.10.2018 14:00:00 20,0 15,1 21 11 - - SSW 1015,5 10 36 0,0
16.10.2018 13:00:00 19,8 14,7 21 11 - - S 1015,3 10 54 0,0
16.10.2018 12:00:00 18,8 14,8 16 9 - - SSE 1015,4 13 60 0,0
16.10.2018 11:00:00 17,3 15,0 8 4 - - SE 1015,6 7 48 0,0
16.10.2018 10:00:00 16,0 14,3 5 3 - - - 1016,0 5 6 0,0
16.10.2018 09:00:00 14,9 13,6 8 4 - - SSE 1015,9 4,0 0 0,0
16.10.2018 08:00:00 14,4 13,6 5 3 - - SSE 1015,5 4,0 0 0,0
16.10.2018 07:00:00 14,3 13,8 5 3 - - SSE 1015,1 6 0 0,0
16.10.2018 06:00:00 14,3 14,1 8 4 - - SE 1014,7 3,4 0 0,0
16.10.2018 05:00:00 14,3 14,2 8 4 - - ESE 1014,4 2,0 0 0,0
16.10.2018 04:00:00 14,4 14,3 11 6 - - E 1014,8 2,7 0 0,0
16.10.2018 03:00:00 14,4 14,3 8 4 - - E 1014,6 2,9 0 0,0
16.10.2018 02:00:00 14,2 14,1 5 3 - - E 1015,0 1,0 0 0,0
16.10.2018 01:00:00 14,0 13,9 5 3 - - E 1015,1 0,5 - 0,0
16.10.2018 00:00:00 13,9 13,8 9 5 - - ESE 1015,1 0,6 0 0,0
15.10.2018 23:00:00 13,5 13,3 8 4 - - E 1014,9 1,4 0 0,0
15.10.2018 22:00:00 13,4 13,1 9 5 - - E 1014,5 2,6 0 0,0
15.10.2018 21:00:00 13,4 12,7 8 4 - - NE 1014,4 5 0 0,0
15.10.2018 20:00:00 13,5 12,9 9 5 - - NE 1014,0 6 0 0,0
15.10.2018 19:00:00 13,6 13,1 8 4 - - NE 1013,6 6 0 0,0
15.10.2018 18:00:00 13,5 13,0 11 6 - - NE 1013,0 9 0 0,0
15.10.2018 17:00:00 13,5 12,9 9 5 - - NE 1012,7 4,4 0 0,0
15.10.2018 16:00:00 13,7 13,0 9 5 - - NE 1012,2 6 0 0,0
15.10.2018 15:00:00 13,9 13,1 9 5 - - NE 1011,7 15 0 0,0
15.10.2018 14:00:00 13,5 13,0 11 6 - - NE 1011,5 3,0 0 0,0
15.10.2018 13:00:00 13,2 12,6 9 5 - - NE 1011,3 2,8 0 0,0
15.10.2018 12:00:00 13,1 12,3 9 5 - - NE 1011,1 3,9 0 0,2
15.10.2018 11:00:00 12,9 12,0 9 5 - - NNE 1010,4 10 0 0,0
15.10.2018 10:00:00 12,4 11,8 8 4 - - NE 1009,9 10 0 0,0
15.10.2018 09:00:00 12,1 11,6 8 4 - - NNE 1009,1 10 0 0,0
15.10.2018 08:00:00 11,8 11,5 8 4 - - N 1008,9 5 0 0,0
15.10.2018 07:00:00 11,7 11,4 8 4 - - NNE 1008,4 2,5 0 0,0
15.10.2018 06:00:00 11,6 11,1 8 4 - - NE 1008,1 2,9 0 0,4
15.10.2018 05:00:00 11,4 10,8 11 6 - - NE 1007,4 10 0 0,0
15.10.2018 04:00:00 11,1 10,5 15 8 - - NE 1007,4 10 0 2,6
15.10.2018 03:00:00 10,8 10,3 11 6 - - NNE 1008,6 5 0 2,8
15.10.2018 02:00:00 10,7 10,2 13 7 - - ENE 1008,8 10 0 2,6
15.10.2018 01:00:00 10,2 9,9 8 4 - - N 1008,9 3,0 - 6,8
15.10.2018 00:00:00 10,1 9,7 9 5 - - N 1008,5 6 0 6,6
14.10.2018 23:00:00 10,2 9,6 13 7 - - NE 1008,8 7 0 0,8
14.10.2018 22:00:00 9,8 9,2 11 6 - - NNE 1008,9 4,6 0 2,4
14.10.2018 21:00:00 10,0 9,2 11 6 - - NNE 1008,9 6 0 0,0
14.10.2018 20:00:00 10,2 9,2 11 6 - - NNE 1008,8 7 0 0,0
14.10.2018 19:00:00 10,1 9,1 9 5 - - N 1008,5 5 0 0,0
14.10.2018 18:00:00 10,3 9,3 11 6 - - N 1008,1 5 0 0,0
14.10.2018 17:00:00 10,9 9,8 11 6 - - NNE 1007,2 5 0 0,2
14.10.2018 16:00:00 11,2 10,0 13 7 - - N 1006,9 4,9 0 0,2
14.10.2018 15:00:00 12,2 11,0 13 7 - - N 1006,2 10 0 1,4
14.10.2018 14:00:00 12,6 11,3 11 6 - - N 1005,6 6 0 0,0
14.10.2018 13:00:00 13,0 12,1 11 6 - - N 1005,3 10 0 0,4
14.10.2018 12:00:00 12,8 12,2 11 6 - - NW 1006,4 8 0 4,6
14.10.2018 11:00:00 13,1 12,1 9 5 - - N 1005,0 10 0 0,0
14.10.2018 10:00:00 12,8 11,7 9 5 - - NNE 1005,1 10 0 1,2
14.10.2018 09:00:00 13,2 11,9 11 6 - - NNW 1005,4 7 0 2,8
14.10.2018 08:00:00 13,8 12,8 11 6 - - NE 1004,7 19 0 0,4
14.10.2018 07:00:00 14,0 12,6 2 1 - - - 1005,4 3,4 0 2,4
14.10.2018 06:00:00 15,2 11,7 9 5 - - NW 1005,5 10 0 0,0
14.10.2018 05:00:00 15,5 12,4 9 5 - - W 1006,4 10 0 0,0
14.10.2018 04:00:00 16,0 13,5 11 6 - - W 1006,5 10 0 0,0
14.10.2018 03:00:00 16,6 13,5 8 4 - - SSW 1006,2 10 0 0,0
14.10.2018 02:00:00 17,5 14,0 26 14 - - WSW 1006,9 10 0 0,0
14.10.2018 01:00:00 18,5 15,6 13 7 - - SSW 1006,5 10 - 0,0
14.10.2018 00:00:00 19,3 15,3 18 10 - - SSW 1006,8 10 0 0,0
13.10.2018 23:00:00 19,7 15,1 21 11 - - SSW 1007,1 10 0 0,0
13.10.2018 22:00:00 20,2 15,4 18 10 - - SSW 1007,8 10 0 0,0
13.10.2018 21:00:00 19,8 15,4 21 11 - - S 1007,8 10 0 0,0
13.10.2018 20:00:00 20,0 15,5 21 11 - - S 1007,9 10 0 0,0
13.10.2018 19:00:00 20,5 15,6 22 12 - - S 1007,5 10 0 0,0
13.10.2018 18:00:00 21,2 15,9 24 13 - - S 1007,2 10 18 0,0
13.10.2018 17:00:00 21,9 16,0 28 15 - - S 1007,3 10 24 0,0
13.10.2018 16:00:00 22,5 16,1 31 17 46 25 S 1007,7 30 48 0,0
13.10.2018 15:00:00 23,6 16,3 34 18 52 28 S 1007,7 10 60 0,0
13.10.2018 14:00:00 23,3 15,9 29 16 46 25 S 1008,5 10 36 0,0
13.10.2018 13:00:00 22,0 15,0 28 15 - - S 1009,2 10 42 0,0
13.10.2018 12:00:00 20,6 13,8 26 14 - - S 1010,4 30 24 0,0
13.10.2018 11:00:00 20,2 13,7 24 13 - - S 1010,8 27 0 0,0
13.10.2018 10:00:00 19,7 14,1 22 12 - - SSW 1011,5 10 6 0,6
13.10.2018 09:00:00 19,9 13,1 21 11 - - S 1011,1 40 0 0,0
13.10.2018 08:00:00 19,2 13,4 22 12 - - S 1010,6 10 0 0,0
13.10.2018 07:00:00 19,0 13,3 24 13 - - SSE 1010,4 10 0 0,0
13.10.2018 06:00:00 19,7 13,6 24 13 - - S 1010,6 10 0 0,0
13.10.2018 05:00:00 19,6 14,0 26 14 - - S 1010,8 10 0 0,2
13.10.2018 04:00:00 19,8 13,9 28 15 - - S 1011,2 10 0 0,0
13.10.2018 03:00:00 19,9 13,8 28 15 - - S 1011,5 10 0 0,0
13.10.2018 02:00:00 20,1 14,1 22 12 - - SSW 1011,7 10 0 0,0
13.10.2018 01:00:00 20,2 13,6 28 15 50 27 SSW 1011,9 10 - 0,0
13.10.2018 00:00:00 20,1 13,4 31 17 54 29 SSW 1011,5 30 0 0,0
12.10.2018 23:00:00 20,7 12,7 31 17 61 33 S 1011,4 10 0 0,0
12.10.2018 22:00:00 21,3 12,2 31 17 65 35 SSW 1011,3 10 0 0,0
12.10.2018 21:00:00 21,3 12,2 39 21 72 39 SSW 1010,9 10 0 0,0
12.10.2018 20:00:00 21,4 12,4 41 22 68 37 SSW 1010,7 10 0 0,0
12.10.2018 19:00:00 20,7 13,0 39 21 67 36 SSW 1010,4 10 0 0,0
12.10.2018 18:00:00 20,2 13,5 31 17 50 27 S 1009,9 10 0 0,0
12.10.2018 17:00:00 20,1 13,4 35 19 57 31 S 1009,7 10 0 0,0
12.10.2018 16:00:00 20,4 12,8 31 17 59 32 S 1009,7 10 36 0,0
12.10.2018 15:00:00 20,8 11,2 35 19 61 33 S 1009,9 17 24 0,0
12.10.2018 14:00:00 20,2 10,4 37 20 59 32 S 1009,9 10 0 0,0
12.10.2018 13:00:00 19,9 11,4 39 21 57 31 S 1009,9 10 12 0,0
12.10.2018 12:00:00 19,8 11,3 29 16 54 29 SSW 1009,9 10 0 0,0
12.10.2018 11:00:00 18,6 12,4 29 16 50 27 S 1010,0 10 18 0,0
12.10.2018 10:00:00 17,6 12,5 28 15 - - S 1009,2 10 30 0,0
12.10.2018 09:00:00 16,8 12,1 22 12 - - S 1009,4 10 0 0,0
12.10.2018 08:00:00 15,9 11,9 26 14 - - S 1009,0 10 0 0,0
12.10.2018 07:00:00 15,2 12,2 24 13 - - S 1008,3 10 0 0,0
12.10.2018 06:00:00 15,0 12,4 26 14 - - S 1008,5 10 0 0,0
12.10.2018 05:00:00 14,7 12,3 22 12 - - S 1008,6 18 0 0,0
12.10.2018 04:00:00 14,0 11,8 16 9 - - S 1008,4 10 0 0,0
12.10.2018 03:00:00 14,1 11,9 15 8 - - S 1008,3 10 0 0,0
12.10.2018 02:00:00 14,1 12,0 16 9 - - S 1008,2 10 0 0,0
12.10.2018 01:00:00 13,6 12,3 13 7 50 27 S 1007,6 10 - 0,0
12.10.2018 00:00:00 13,8 12,8 13 7 - - S 1007,7 10 0 0,0
11.10.2018 23:00:00 14,1 12,7 13 7 - - S 1007,0 10 0 0,0
11.10.2018 22:00:00 15,0 13,0 13 7 - - S 1006,9 10 0 0,0
11.10.2018 21:00:00 15,2 13,0 15 8 - - S 1006,2 10 0 0,0
11.10.2018 20:00:00 15,2 12,8 18 10 - - SSW 1005,6 10 0 1,8
11.10.2018 19:00:00 16,3 15,1 16 9 - - SSW 1005,4 4,0 0 1,2
11.10.2018 18:00:00 17,5 14,2 24 13 - - S 1005,0 10 0 0,0
11.10.2018 17:00:00 18,4 13,6 26 14 - - S 1004,3 10 0 0,0
11.10.2018 16:00:00 18,8 13,8 26 14 - - S 1003,8 10 0 0,0
11.10.2018 15:00:00 18,8 14,1 24 13 - - S 1003,7 10 0 0,0
11.10.2018 14:00:00 19,8 13,8 26 14 - - S 1003,1 10 6 0,0
11.10.2018 13:00:00 20,8 13,9 22 12 - - S 1003,3 10 36 0,0
11.10.2018 12:00:00 20,2 14,4 31 17 48 26 S 1003,7 26 42 0,0
11.10.2018 11:00:00 18,3 13,4 26 14 - - SSE 1003,8 26 12 0,0
11.10.2018 10:00:00 17,8 13,9 18 10 - - SSE 1003,8 10 6 0,0
11.10.2018 09:00:00 16,4 13,5 16 9 - - S 1004,0 10 0 0,0
11.10.2018 08:00:00 15,5 13,1 13 7 - - SE 1003,8 10 0 0,0
11.10.2018 07:00:00 15,4 12,6 16 9 - - SSE 1003,4 10 0 0,0
11.10.2018 06:00:00 15,6 13,0 16 9 - - SSE 1003,0 10 0 0,0

tt = Température de l'air
td = dewpoint
ff = Vitesse du vent
fx = gusts
dd = Direction du vent
ppp = reduced air pressure
vv = visibility
sd = Ensoleillement
rr = Quantités de précipitations

stations d'obs. à proximité